{"data":{"norad_id":57997,"epoch":"2026-05-24T23:29:46.147776Z","epoch_age_seconds":74265,"freshness":"FRESH","line1":"1 57997U 23153G   26144.97900634  .00001231  00000+0  54263-4 0  9996","line2":"2 57997  43.0064 356.2319 0001780 277.2575  82.8074 15.27582825146562","mean_motion":15.27582825,"eccentricity":0.000178,"inclination_deg":43.0064,"raan_deg":356.2319,"arg_perigee_deg":277.2575,"mean_anomaly_deg":82.8074,"bstar":5.4263e-5,"rev_number":14656,"period_min":94.266574383618,"perigee_km":481.81934736702,"apogee_km":484.26192660578,"semimajor_km":6861.1776369864,"source":"CELESTRAK","updated_at":"2026-05-25T13:38:18.490468Z"}}